Weather in Velikaya Guba

Russia / Republic of Karelia     62°14′55″N   35°04′12″E
temp.,
°C
wind,
m/s
gust,
m/s
humid.,
%
clouds,
%
prec.,
mm/h
press.,
hPa
HPBL,
m
19 september, sun
sun1900:00+6ene2362100 0.0 1031229
03:00+6ene2264100 0.0 1031180
06:00+5ne2268100 0.0 1031151
09:00+7ene2463100 0.0 1031436
12:00+9e345177 0.0 10321507
15:00+9ne344874 0.1 10321577
18:00+8ene475694 0.0 1031675
21:00+4ene377495 0.0 1033287
20 september, mon
mon2000:00+4ene38775 0.0 1033319
03:00+2ene358552 0.0 1034231
06:00+5ne2770100 0.0 1033374
09:00+6e486711 0.0 1034691
12:00+8e575498 0.0 10341449
15:00+7ene5659100 0.0 10331348
18:00+6e4759100 0.0 10321036
21:00+6e5759100 0.0 1032938
21 september, tue
tue2100:00+6ese475899 0.0 1031723
03:00+3e3775100 0.0 1030257
06:00+2ene4885100 0.0 1029327
09:00+4e487497 0.0 1028436
12:00+7e4658100 0.0 1027749
15:00+9e4654100 0.0 10261010
18:00+7e376498 0.0 1025334
21:00+6e3875100 0.0 1025312
22 september, wed
wed2200:00+5e368378 0.0 1025210
03:00+3ene249226 0.0 1026125
06:00+2ene35946 0.0 1026136
09:00+6e46775 0.0 1026335
12:00+10ese34575 0.0 1026733
15:00+11ese34525 0.0 1025917
18:00+9ese23654 0.0 1024146
21:00+7ese36765 0.0 1024178
23 september, thu
thu2300:00+6se36845 0.0 1023149
03:00+6se348917 0.0 1022107
06:00+7ese3683100 0.0 1020286
09:00+9se4776100 0.0 1019517
12:00+9sse4781100 0.0 1018631
15:00+9se5886100 0.1 1016669
18:00+8sse5791100 0.6 1014602
21:00+9s4791100 1.2 1013494